15min,AgWx,evansfrm,411,22APR2018:00:00:00,42.8,12.89,43.8,44.2,43.3,44.3,42.5,68,70,66,0.656,33.6,34.2,32.7,1.535,1.8,54,20,3.6,-0.00012,-0.00015,55.7,53.6,28,0,0,45.0,20.87,0.00,0.00
15min,AgWx,evansfrm,411,22APR2018:00:15:00,42.5,12.88,42.6,42.9,43.8,44.6,42.9,66,69,64,0.643,33.2,33.9,32.2,0,1.2,58,9.5,3.2,-0.00016,-0.00021,55.4,54.0,28,0,0,46.1,20.87,0.00,0.00
15min,AgWx,evansfrm,411,22APR2018:00:30:00,42.0,12.82,40.8,40.8,41.3,43.1,40.2,70,72,66,0.622,32.3,33.4,30.9,4.034,3.0,164,28,5.1,-0.00005,-0.00005,55.2,53.8,28,0,0,43.8,20.87,0.00,0.00
15min,AgWx,evansfrm,411,22APR2018:00:45:00,41.4,12.87,40.2,40.9,40.9,41.1,40.5,72,73,71,0.631,32.7,33.2,31.9,0,0.8,155,4.7,4.5,-0.00020,-0.00028,54.9,53.6,28,0,0,42.8,20.87,0.00,0.00
15min,AgWx,evansfrm,411,22APR2018:01:00:00,40.9,12.86,40.0,40.4,40.8,41.8,40.0,73,75,71,0.631,33.0,33.5,32.5,0,1.0,8.3,61,2.8,-0.00018,-0.00025,54.8,53.8,28,0,0,43.0,20.87,0.00,0.00
15min,AgWx,evansfrm,411,22APR2018:01:15:00,40.5,12.85,41.5,41.6,40.8,41.6,40.2,74,76,73,0.649,33.2,33.8,32.6,1.578,1.2,45,22,3.1,-0.00017,-0.00023,54.5,53.6,28,0,0,43.2,20.87,0.00,0.00
15min,AgWx,evansfrm,411,22APR2018:01:30:00,40.1,12.84,41.7,42.5,40.7,42.5,38.3,72,77,68,0.645,32.4,33.5,30.5,1.973,1.4,69,21,2.5,-0.00016,-0.00021,54.3,53.6,28,0,0,43.4,20.87,0.00,0.00
15min,AgWx,evansfrm,411,22APR2018:01:45:00,39.9,12.83,41.5,41.9,42.1,43.8,41.5,69,70,65,0.620,32.6,33.7,31.8,0.329,1.0,67,75,2.3,-0.00019,-0.00026,54.1,52.9,28,0,0,43.9,20.87,0.00,0.00
15min,AgWx,evansfrm,411,22APR2018:02:00:00,39.6,12.83,40.3,40.5,41.5,42.1,40.5,69,71,67,0.585,32.3,32.8,30.8,1.885,0.1,191,11,2.9,-0.00027,-0.00043,53.9,52.9,28,0,0,43.2,20.87,0.00,0.00
15min,AgWx,evansfrm,411,22APR2018:02:15:00,39.1,12.82,38.8,39.0,39.6,41.5,37.9,72,78,68,0.580,31.2,33.4,29.5,0,2.0,143,22,3.8,-0.00011,-0.00013,53.6,52.3,28,0,0,42.7,20.87,0.00,0.00
15min,AgWx,evansfrm,411,22APR2018:02:30:00,38.7,12.81,39.4,39.8,39.1,40.9,37.1,74,79,71,0.607,31.6,33.2,30.2,2.631,1.7,106,41,3.8,-0.00013,-0.00017,53.4,52.7,28,0,0,42.3,20.87,0.00,0.00
15min,AgWx,evansfrm,411,22APR2018:02:45:00,38.3,12.81,39.3,40.1,39.6,40.2,38.5,75,79,72,0.620,32.3,33.4,31.4,0,1.6,165,15,3.1,-0.00014,-0.00017,53.3,52.2,28,0,0,41.7,20.87,0.00,0.00
15min,AgWx,evansfrm,411,22APR2018:03:00:00,37.9,12.8,38.6,39.1,39.3,40.1,38.9,75,77,73,0.606,31.9,32.8,31.1,0.943,0.1,191,8.3,0.9,-0.00027,-0.00043,53.0,52.0,28,0,0,41.2,20.87,0.00,0.00
15min,AgWx,evansfrm,411,22APR2018:03:15:00,37.8,12.79,40.1,40.3,41.1,41.8,39.1,71,76,69,0.617,32.5,33.2,31.9,0,0.9,100,23,1.8,-0.00019,-0.00027,52.8,52.7,28,0,0,42.1,20.87,0.00,0.00
15min,AgWx,evansfrm,411,22APR2018:03:30:00,37.8,12.79,39.2,38.9,40.0,40.7,38.9,74,75,73,0.605,32.3,32.8,31.6,1.776,1.9,15,17,3.5,-0.00012,-0.00015,52.7,52.2,28,0,0,42.4,20.87,0.00,0.00
15min,AgWx,evansfrm,411,22APR2018:03:45:00,37.5,12.78,38.0,38.4,38.7,39.8,37.6,77,80,75,0.630,32.2,32.9,30.7,0,0.7,31,48,2.7,-0.00021,-0.00030,52.4,51.8,28,0,0,41.0,20.87,0.00,0.00
15min,AgWx,evansfrm,411,22APR2018:04:00:00,37.0,12.77,36.0,36.0,37.0,38.4,36.0,83,84,79,0.592,32.2,33.2,31.2,2.609,2.6,161,42,3.9,-0.00011,-0.00013,52.2,52.0,28,0,0,39.4,20.87,0.00,0.00
15min,AgWx,evansfrm,411,22APR2018:04:15:00,36.5,12.77,37.1,37.8,36.5,38.1,35.7,82,83,79,0.611,31.6,32.9,30.8,0.57,1.1,106,18,2.9,-0.00017,-0.00024,52.0,51.6,28,0,0,39.4,20.87,0.00,0.00
15min,AgWx,evansfrm,411,22APR2018:04:30:00,36.4,12.75,36.6,36.5,37.3,38.7,35.9,79,82,75,0.593,31.4,32.6,30.3,1.6,2.7,64,59,4.3,-0.00009,-0.00010,51.8,51.1,28,0,0,41.0,20.87,0.00,0.00
15min,AgWx,evansfrm,411,22APR2018:04:45:00,36.0,12.74,36.6,37.3,36.9,37.4,36.3,83,84,81,0.615,32.1,32.9,31.2,0.745,1.0,101,71,2.6,-0.00018,-0.00026,51.8,51.1,28,0,0,39.4,20.87,0.00,0.00
15min,AgWx,evansfrm,411,22APR2018:05:00:00,35.7,12.74,37.8,38.2,37.8,38.4,36.6,78,82,75,0.606,31.7,32.5,29.8,1.556,0.6,86,16,2.2,-0.00021,-0.00031,51.6,51.1,28,0,0,39.6,20.87,0.00,0.00
15min,AgWx,evansfrm,411,22APR2018:05:15:00,35.8,12.74,38.1,38.2,39.0,39.9,38.1,74,77,72,0.579,31.4,32.3,30.4,1.008,2.0,69,32,3.6,-0.00011,-0.00014,51.2,50.9,28,0,0,41.4,20.87,0.00,0.00
15min,AgWx,evansfrm,411,22APR2018:05:30:00,35.6,12.73,36.4,36.3,37.4,38.2,36.2,77,79,74,0.571,30.7,31.8,29.9,0,1.0,180,15,2.9,-0.00017,-0.00024,51.2,50.9,28,1,0,39.7,20.87,0.00,0.00
15min,AgWx,evansfrm,411,22APR2018:05:45:00,35.2,12.73,35.5,35.4,35.9,37.5,34.2,81,84,78,0.566,30.5,32.3,28.5,1.929,2.0,165,37,3.7,-0.00011,-0.00014,51.0,50.7,28,5,0,39.2,20.87,0.00,0.00
15min,AgWx,evansfrm,411,22APR2018:06:00:00,34.9,12.73,35.4,35.7,35.6,36.5,34.8,83,86,81,0.601,31.1,32.4,29.6,4.735,2.4,147,10,4.7,-0.00005,-0.00000,50.8,50.7,28,11,0,38.9,20.87,0.00,0.00
15min,AgWx,evansfrm,411,22APR2018:06:15:00,35.0,12.73,37.6,37.9,37.1,38.1,35.8,82,86,79,0.609,32.1,33.3,31.5,4.077,4.5,169,5.7,5.9,0.00015,0.00025,50.6,50.5,28,17,0,40.1,20.87,0.00,0.00
15min,AgWx,evansfrm,411,22APR2018:06:30:00,35.4,12.74,40.0,40.4,39.2,40.6,37.9,77,80,74,0.630,32.7,33.2,32.0,2.521,3.3,162,36,4.2,0.00024,0.00035,50.5,50.5,28,23,0,42.1,20.86,0.00,0.00
15min,AgWx,evansfrm,411,22APR2018:06:45:00,37.8,12.77,42.3,42.3,41.4,42.3,40.4,74,76,73,0.680,33.8,35.0,32.7,1.776,1.6,198,24,3.0,0.00028,0.00036,50.3,50.2,28,141,0,51.1,20.86,0.00,0.00
15min,AgWx,evansfrm,411,22APR2018:07:00:00,41.7,12.81,44.9,44.7,43.1,44.7,42.1,72,74,67,0.678,34.6,35.4,34.0,0,0.8,178,12,2.2,0.00051,0.00058,50.2,50.2,28,190,0,58.6,20.86,0.00,0.00
15min,AgWx,evansfrm,411,22APR2018:07:15:00,45.5,12.94,46.5,46.2,45.9,46.8,44.7,64,67,62,0.672,34.6,35.1,34.1,0.526,0.2,146,5.4,2.5,0.00076,0.00082,50.1,50.2,28,237,0,64.0,20.86,0.00,0.00
15min,AgWx,evansfrm,411,22APR2018:07:30:00,48.7,13.2,46.5,46.2,46.1,46.6,45.7,65,67,63,0.688,35.0,35.8,34.4,0.482,1.6,193,20,3.4,0.00108,0.00125,50.0,49.8,28,285,0,65.4,20.86,0.00,0.00
15min,AgWx,evansfrm,411,22APR2018:07:45:00,51.8,13.57,48.6,47.5,46.7,47.5,46.2,65,68,64,0.713,35.7,37.0,34.8,1.293,1.1,244,36,3.1,0.00133,0.00149,49.9,50.0,28,333,0,67.5,20.86,0.00,0.00
15min,AgWx,evansfrm,411,22APR2018:08:00:00,55.1,14.03,51.3,50.8,49.0,51.0,47.3,61,65,55,0.701,36.0,37.7,35.3,0.899,0.5,174,48,2.0,0.00164,0.00179,49.7,49.6,28,383,0,74.2,20.86,0.00,0.00
15min,AgWx,evansfrm,411,22APR2018:08:15:00,57.9,14.26,51.1,50.4,50.5,51.3,50.0,57,59,55,0.714,35.9,36.7,35.2,2.696,1.3,210,50,3.2,0.00199,0.00221,49.8,49.6,28,431,0,76.6,20.86,0.00,0.00
15min,AgWx,evansfrm,411,22APR2018:08:30:00,60.4,14.3,53.0,51.7,51.2,52.0,50.3,57,62,54,0.748,36.7,39.0,35.1,2.74,2.0,231,46,4.0,0.00229,0.00258,49.7,49.3,28,476,0,76.3,20.86,0.00,0.00
15min,AgWx,evansfrm,411,22APR2018:08:45:00,62.3,14.48,54.2,52.4,51.8,52.4,51.2,58,63,54,0.753,37.5,39.9,36.4,2.784,1.9,299,44,3.8,0.00256,0.00286,49.8,49.3,28,520,0,76.1,20.86,0.00,0.00
15min,AgWx,evansfrm,411,22APR2018:09:00:00,64.4,14.46,55.7,53.6,53.4,54.4,52.2,54,59,50,0.729,37.1,39.0,35.8,2.916,1.7,299,38,3.8,0.00288,0.00322,49.8,49.3,28,565,0,80.0,20.86,0.00,0.00
15min,AgWx,evansfrm,411,22APR2018:09:15:00,66.6,14.38,56.1,54.7,54.5,55.5,53.6,53,55,51,0.763,37.7,39.0,36.3,2.477,1.8,307,51,4.1,0.00317,0.00353,49.9,49.1,28,605,0,82.6,20.86,0.00,0.00
15min,AgWx,evansfrm,411,22APR2018:09:30:00,68.5,14.41,58.1,56.2,56.0,57.1,54.7,52,56,50,0.786,38.6,40.9,37.1,1.491,1.8,276,70,4.6,0.00347,0.00386,49.9,49.3,28,645,0,85.1,20.86,0.00,0.00
15min,AgWx,evansfrm,411,22APR2018:09:45:00,70.2,14.38,59.2,58.4,57.3,58.5,56.2,50,54,47,0.802,38.7,41.0,37.2,3.486,1.8,323,62,4.5,0.00377,0.00419,50.2,49.1,28,684,0,86.5,20.86,0.00,0.00
15min,AgWx,evansfrm,411,22APR2018:10:00:00,71.8,14.37,60.5,59.4,58.8,59.6,57.7,47,52,43,0.747,38.6,41.3,37.0,2.521,2.5,314,45,6.4,0.00408,0.00460,50.4,49.1,28,718,0,87.7,20.86,0.00,0.00
15min,AgWx,evansfrm,411,22APR2018:10:15:00,72.7,14.37,61.6,60.2,59.6,60.6,59.0,45,48,41,0.761,38.0,39.8,36.5,3.42,2.9,332,34,6.1,0.00434,0.00493,50.6,48.9,28,751,0,86.7,20.86,0.00,0.00
15min,AgWx,evansfrm,411,22APR2018:10:30:00,73.3,14.35,63.2,61.3,60.9,61.8,60.0,44,48,40,0.766,38.8,41.7,36.7,2.17,3.2,309,30,6.3,0.00458,0.00523,50.9,49.1,28,776,0,87.4,20.86,0.00,0.00
15min,AgWx,evansfrm,411,22APR2018:10:45:00,74.1,14.32,64.4,62.5,62.2,63.3,61.2,40,45,36,0.721,37.8,40.5,35.3,4.056,3.1,319,38,6.3,0.00487,0.00554,51.2,49.1,28,808,0,90.1,20.86,0.00,0.00
15min,AgWx,evansfrm,411,22APR2018:11:00:00,74.8,14.31,66.0,65.0,63.8,65.3,62.2,37,42,34,0.719,36.9,40.5,35.0,2.828,2.2,349,43,4.5,0.00509,0.00572,51.5,48.9,28,833,0,93.6,20.86,0.00,0.00
15min,AgWx,evansfrm,411,22APR2018:11:15:00,75.4,14.29,66.2,65.1,64.6,65.9,63.9,36,45,32,0.803,37.1,43.0,34.2,5.568,3.4,297,42,7.2,0.00534,0.00613,51.8,49.1,28,854,0,93.9,20.86,0.00,0.00
15min,AgWx,evansfrm,411,22APR2018:11:30:00,75.3,14.29,66.9,65.9,65.8,67.4,65.1,35,41,32,0.749,37.6,42.0,34.7,3.639,3.5,339,49,6.7,0.00555,0.00638,52.2,49.3,28,875,0,92.9,20.86,0.00,0.00
15min,AgWx,evansfrm,411,22APR2018:11:45:00,75.0,14.29,69.0,69.0,66.9,69.2,65.7,35,40,31,0.812,38.0,42.1,34.9,2.784,3.8,316,44,6.5,0.00573,0.00661,52.6,49.3,28,890,0,93.9,20.86,0.00,0.00
15min,AgWx,evansfrm,411,22APR2018:12:00:00,74.6,14.28,68.7,68.5,68.0,69.0,67.4,33,39,27,0.632,37.7,41.9,32.8,2.981,3.7,319,47,5.9,0.00584,0.00675,53.1,49.3,28,894,0,94.8,20.86,0.00,0.00
15min,AgWx,evansfrm,411,22APR2018:12:15:00,74.0,14.29,69.4,69.3,68.4,69.4,67.8,29,33,26,0.745,34.6,38.1,32.7,1.469,2.3,340,67,6.4,0.00582,0.00656,53.5,49.6,28,899,0,98.9,20.86,0.00,0.00
15min,AgWx,evansfrm,411,22APR2018:12:30:00,73.4,14.27,70.3,69.5,69.4,70.4,68.9,29,34,26,0.821,35.6,40.5,32.4,3.551,3.2,286,39,7.8,0.00600,0.00689,53.9,49.8,28,907,0,99.2,20.86,0.00,0.00
15min,AgWx,evansfrm,411,22APR2018:12:45:00,72.9,14.28,71.2,70.6,70.0,70.9,69.3,28,35,24,0.648,35.4,41.4,32.0,3.968,2.7,292,44,7.5,0.00599,0.00682,54.4,49.6,28,907,0,100.7,20.86,0.00,0.00
15min,AgWx,evansfrm,411,22APR2018:13:00:00,72.6,14.25,70.8,70.7,70.0,70.7,69.5,26,30,23,0.646,33.3,37.2,31.0,3.135,3.6,320,32,6.9,0.00599,0.00696,54.9,50.0,28,893,0,97.8,20.86,0.00,0.00
15min,AgWx,evansfrm,411,22APR2018:13:15:00,72.8,14.23,70.5,70.3,70.7,71.4,70.1,23,28,20,0.537,31.0,35.6,28.0,1.271,3.4,272,91,7.6,0.00611,0.00709,55.5,50.2,28,909,0,99.2,20.86,0.00,0.00
15min,AgWx,evansfrm,411,22APR2018:13:30:00,73.3,14.2,71.7,71.3,70.6,72.3,70.0,23,27,20,0.592,30.8,36.2,27.1,6.072,4.4,303,71,8.4,0.00611,0.00722,56.0,50.7,28,897,0,97.7,20.86,0.00,0.00
15min,AgWx,evansfrm,411,22APR2018:13:45:00,74.0,14.16,71.2,71.0,70.6,71.6,69.8,22,27,20,0.590,29.9,35.7,27.3,2.894,3.2,219,76,7.2,0.00568,0.00660,56.5,50.7,28,840,0,97.5,20.86,0.00,0.00
15min,AgWx,evansfrm,411,22APR2018:14:00:00,75.1,14.14,72.1,72.0,71.3,72.1,70.9,23,28,20,0.651,31.9,36.9,28.1,3.595,4.9,285,34,10.7,0.00594,0.00713,56.9,50.9,28,854,0,94.4,20.86,0.00,0.00
15min,AgWx,evansfrm,411,22APR2018:14:15:00,76.3,14.11,72.1,71.0,71.9,72.8,71.0,23,28,20,0.565,31.8,37.6,28.8,1.995,3.3,273,33,6.8,0.00550,0.00643,57.5,51.8,28,802,0,97.0,20.86,0.00,0.00
15min,AgWx,evansfrm,411,22APR2018:14:30:00,77.8,14.09,73.0,73.4,72.1,73.4,71.1,22,29,20,0.628,31.4,38.9,28.7,2.302,2.2,247,65,6.0,0.00532,0.00606,58.0,51.1,28,803,0,100.7,20.86,0.00,0.00
15min,AgWx,evansfrm,411,22APR2018:14:45:00,79.0,14.08,72.3,72.1,72.1,73.9,71.2,22,25,20,0.622,31.4,34.8,27.9,4.143,5.4,293,31,9.0,0.00547,0.00672,58.4,52.0,27,762,0,93.6,20.86,0.00,0.00
15min,AgWx,evansfrm,411,22APR2018:15:00:00,79.4,14.01,72.0,71.5,71.9,72.5,71.1,22,26,19,0.570,31.3,35.2,26.7,3.091,5.7,312,31,10.0,0.00527,0.00655,58.9,52.2,27,726,0,89.2,20.86,0.00,0.00
15min,AgWx,evansfrm,411,22APR2018:15:15:00,80.0,14.07,72.8,71.9,72.0,72.7,71.4,21,26,18,0.486,29.7,35.0,26.4,2.806,4.1,286,36,8.5,0.00486,0.00589,59.4,53.6,27,693,0,91.9,20.86,0.00,0.00
15min,AgWx,evansfrm,411,22APR2018:15:30:00,80.8,14.06,74.0,73.4,72.3,73.5,71.5,21,25,18,0.654,29.7,35.3,26.5,0.723,2.4,258,61,7.0,0.00443,0.00516,59.8,52.9,27,666,0,95.3,20.86,0.00,0.00
15min,AgWx,evansfrm,411,22APR2018:15:45:00,81.4,14.01,72.1,72.5,72.4,73.8,71.5,19,24,17,0.483,28.4,35.1,25.6,8.07,5.4,186,22,9.3,0.00462,0.00585,60.1,53.2,27,628,0,92.8,20.86,0.00,0.00
15min,AgWx,evansfrm,411,22APR2018:16:00:00,81.0,14.05,71.8,72.0,72.4,73.1,71.8,19,21,17,0.506,27.4,29.9,24.8,3.551,6.1,217,23,11.2,0.00451,0.00586,60.5,53.2,27,595,0,88.0,20.86,0.00,0.00
15min,AgWx,evansfrm,411,22APR2018:16:15:00,81.0,14.06,72.3,72.5,72.4,73.1,71.9,18,24,17,0.505,27.1,33.5,24.5,5.634,3.1,258,63,8.6,0.00367,0.00449,60.7,54.1,27,541,0,90.6,20.86,0.00,0.00
15min,AgWx,evansfrm,411,22APR2018:16:30:00,80.6,14.02,71.6,71.9,72.2,72.8,71.7,18,22,16,0.474,26.9,31.6,24.1,1.863,4.1,229,53,7.8,0.00360,0.00459,61.1,54.5,27,507,0,85.5,20.86,0.00,0.00
15min,AgWx,evansfrm,411,22APR2018:16:45:00,79.8,14.05,70.9,71.4,71.8,72.5,71.0,18,20,17,0.447,26.3,29.6,23.7,3.858,4.3,200,28,8.2,0.00295,0.00392,61.4,54.7,27,372,0,78.7,20.86,0.00,0.00
15min,AgWx,evansfrm,411,22APR2018:17:00:00,78.8,14.05,71.4,72.1,71.8,72.4,71.2,18,21,16,0.461,25.9,29.0,23.1,4.319,6.0,204,18,9.1,0.00323,0.00448,61.6,54.7,27,398,0,75.1,20.86,0.00,0.00
15min,AgWx,evansfrm,411,22APR2018:17:15:00,78.2,14.05,71.5,72.2,72.0,72.4,71.5,17,20,15,0.492,25.3,29.1,21.6,3.727,5.2,201,15,8.0,0.00287,0.00398,62.0,55.0,27,370,0,74.4,20.86,0.00,0.00
15min,AgWx,evansfrm,411,22APR2018:17:30:00,77.6,13.9,70.9,71.6,72.0,72.5,71.4,18,19,15,0.486,25.6,27.8,22.7,4.647,4.2,217,17,9.2,0.00239,0.00331,62.1,55.6,27,330,0,74.0,20.86,0.00,0.00
15min,AgWx,evansfrm,411,22APR2018:17:45:00,76.8,13.71,70.4,71.1,71.3,71.6,71.0,18,20,16,0.463,25.8,28.3,23.4,4.231,4.6,197,12,6.5,0.00217,0.00312,62.2,55.4,27,286,0,73.6,20.87,0.00,0.00
15min,AgWx,evansfrm,411,22APR2018:18:00:00,76.1,13.47,70.5,71.2,71.4,72.0,71.0,18,21,16,0.517,26.3,29.8,23.4,5.086,4.5,205,19,8.3,0.00182,0.00273,62.4,55.6,27,237,0,73.0,20.87,0.00,0.00
15min,AgWx,evansfrm,411,22APR2018:18:15:00,75.0,13.27,69.8,70.4,70.8,71.2,70.4,17,19,14,0.445,23.8,26.8,20.0,3.968,5.6,197,11,9.9,0.00167,0.00276,62.5,55.9,27,177,0,71.8,20.87,0.00,0.00
15min,AgWx,evansfrm,411,22APR2018:18:30:00,73.8,13.15,68.9,69.5,69.9,70.5,69.5,20,23,18,0.493,27.6,30.3,24.8,3.814,3.4,202,11,5.3,0.00083,0.00148,62.5,55.6,27,130,0,71.3,20.87,0.00,0.00
15min,AgWx,evansfrm,411,22APR2018:18:45:00,72.4,13.1,67.7,68.4,69.2,69.7,68.3,21,24,19,0.544,28.1,30.2,26.0,1.841,1.8,207,13,3.2,0.00009,0.00043,62.5,55.8,27,74,0,71.0,20.87,0.00,0.00
15min,AgWx,evansfrm,411,22APR2018:19:00:00,70.3,13.06,65.3,66.0,67.0,68.4,66.0,22,24,21,0.513,27.4,28.8,26.4,3.508,2.6,158,19,3.7,0.00048,0.00095,62.4,55.6,27,14,0,66.5,20.87,0.00,0.00
15min,AgWx,evansfrm,411,22APR2018:19:15:00,67.7,13.04,61.6,61.8,64.0,66.0,61.8,26,30,23,0.565,28.0,30.3,26.4,4.056,3.5,118,8.9,4.1,0.00058,0.00114,62.2,55.9,27,6,0,64.4,20.87,0.00,0.00
15min,AgWx,evansfrm,411,22APR2018:19:30:00,65.0,13.03,59.3,60.1,59.4,61.3,58.1,34,35,31,0.559,30.9,31.9,29.7,5.612,4.6,93,3.4,5.8,0.00031,0.00046,62.2,55.6,27,2,0,62.1,20.87,0.00,0.00
15min,AgWx,evansfrm,411,22APR2018:19:45:00,63.3,13.01,61.0,61.3,61.1,61.5,60.0,30,31,29,0.534,29.3,30.0,28.4,5.48,6.4,99,6.3,8.0,0.00052,0.00071,62.1,56.5,27,0,0,61.7,20.87,0.00,0.00
15min,AgWx,evansfrm,411,22APR2018:20:00:00,61.6,13,58.3,58.7,58.7,61.4,57.4,37,40,29,0.610,32.2,34.9,28.7,0,1.3,210,63,5.1,-0.00014,-0.00016,61.8,55.9,27,0,0,58.4,20.87,0.00,0.00
15min,AgWx,evansfrm,411,22APR2018:20:15:00,59.9,12.99,56.8,56.9,57.9,58.8,56.9,36,38,33,0.587,31.1,32.9,30.0,2.236,1.6,138,44,3.3,-0.00011,-0.00012,61.5,56.3,27,0,0,56.7,20.87,0.00,0.00
15min,AgWx,evansfrm,411,22APR2018:20:30:00,58.0,12.99,53.2,54.0,54.4,56.8,51.5,42,47,37,0.599,31.5,32.1,30.7,3.047,2.9,142,16,5.0,0.00006,0.00013,61.4,55.4,27,0,0,55.7,20.87,0.00,0.00
15min,AgWx,evansfrm,411,22APR2018:20:45:00,56.3,12.94,51.0,51.1,52.0,54.2,50.9,46,49,42,0.600,31.7,32.3,31.0,3.244,2.3,119,14,3.7,-0.00002,0.00001,61.0,55.6,27,0,0,53.8,20.87,0.00,0.00
15min,AgWx,evansfrm,411,22APR2018:21:00:00,54.7,12.97,49.0,49.0,50.0,51.0,49.0,49,52,46,0.607,31.6,32.6,30.8,0,1.2,133,19,3.5,-0.00016,-0.00021,60.7,55.9,27,0,0,53.8,20.87,0.00,0.00
15min,AgWx,evansfrm,411,22APR2018:21:15:00,53.2,12.96,50.3,51.0,51.1,52.0,48.9,47,51,44,0.587,31.5,33.1,30.2,0.482,0.5,210,51,1.4,-0.00028,-0.00041,60.5,56.3,27,0,0,52.4,20.87,0.00,0.00
15min,AgWx,evansfrm,411,22APR2018:21:30:00,52.2,12.93,52.1,52.5,51.8,53.1,50.9,45,46,43,0.615,31.2,32.5,30.8,0.373,0.9,103,35,2.1,-0.00021,-0.00029,60.3,56.5,27,0,0,51.9,20.87,0.00,0.00
15min,AgWx,evansfrm,411,22APR2018:21:45:00,51.5,12.95,51.2,51.2,51.9,52.5,51.2,47,49,45,0.630,32.1,33.1,31.3,0.899,0.9,31,13,3.5,-0.00021,-0.00029,59.9,56.5,27,0,0,52.9,20.87,0.00,0.00
15min,AgWx,evansfrm,411,22APR2018:22:00:00,50.8,12.94,49.6,50.0,50.8,51.2,50.0,50,52,49,0.634,32.9,33.9,32.3,0.417,0.6,1.8,30,1.3,-0.00025,-0.00037,59.7,55.9,27,0,0,52.1,20.87,0.00,0.00
15min,AgWx,evansfrm,411,22APR2018:22:15:00,50.0,12.88,48.9,49.6,49.2,49.9,48.5,53,54,52,0.633,32.7,33.1,32.2,2.236,1.2,144,50,2.8,-0.00017,-0.00022,59.4,56.3,27,0,0,50.7,20.87,0.00,0.00
15min,AgWx,evansfrm,411,22APR2018:22:30:00,49.3,12.92,48.7,50.0,48.6,50.3,46.8,55,58,51,0.636,32.9,33.8,32.2,2.192,1.8,101,31,3.4,-0.00010,-0.00011,59.2,56.8,27,0,0,51.5,20.87,0.00,0.00
15min,AgWx,evansfrm,411,22APR2018:22:45:00,49.0,12.92,47.2,47.5,48.5,50.8,46.9,56,61,50,0.664,33.6,34.3,32.5,1.556,1.6,106,51,3.4,-0.00013,-0.00016,58.9,56.3,27,0,0,51.9,20.87,0.00,0.00
15min,AgWx,evansfrm,411,22APR2018:23:00:00,48.5,12.92,47.5,47.3,47.9,48.7,47.3,58,61,55,0.674,33.6,34.5,33.3,2.543,0.9,135,68,3.6,-0.00021,-0.00029,58.6,55.9,27,0,0,50.5,20.87,0.00,0.00
15min,AgWx,evansfrm,411,22APR2018:23:15:00,48.0,12.91,47.3,47.8,47.1,47.9,45.9,61,66,58,0.744,34.5,36.9,33.0,2.017,1.4,253,78,2.9,-0.00015,-0.00020,58.4,56.1,27,0,0,49.3,20.87,0.00,0.00
15min,AgWx,evansfrm,411,22APR2018:23:30:00,47.8,12.9,48.0,48.3,47.2,48.3,46.2,64,68,58,0.678,35.6,37.4,33.8,1.578,1.7,82,77,3.2,-0.00013,-0.00016,58.0,56.5,27,0,0,50.4,20.87,0.00,0.00
15min,AgWx,evansfrm,411,22APR2018:23:45:00,48.1,12.9,50.3,50.5,49.3,50.5,48.3,57,61,55,0.710,34.8,36.0,34.2,4.253,2.4,347,15,5.9,-0.00006,-0.00005,57.9,56.5,27,0,0,52.5,20.87,0.00,0.00
15min,AgWx,drainfrm,410,22APR2018:00:00:00,45.1,12.78,45.0,46.5,45.6,46.7,44.3,79,87,71,0.761,39.5,40.8,37.5,3.332,1.7,159,35,3.5,-0.00015,-0.00019,51.7,49.3,47,0,100,45.5,18.87,0.00,0.00
15min,AgWx,drainfrm,410,22APR2018:00:15:00,44.8,12.77,44.0,44.4,46.1,47.1,44.4,71,78,67,0.763,37.1,38.1,36.3,0.811,3.2,166,11,5.1,-0.00004,-0.00003,51.5,49.3,47,0,100,46.1,18.87,0.00,0.00
15min,AgWx,drainfrm,410,22APR2018:00:30:00,44.3,12.77,43.0,44.1,44.0,44.5,43.4,82,85,76,0.799,38.8,39.6,37.4,1.381,1.3,194,58,2.9,-0.00018,-0.00024,51.4,49.3,47,0,100,44.2,18.87,0.00,0.00
15min,AgWx,drainfrm,410,22APR2018:00:45:00,43.6,12.77,42.9,43.8,43.9,44.2,43.6,83,87,79,0.840,39.1,40.1,37.8,1.228,1.2,222,29,1.9,-0.00018,-0.00025,51.2,49.3,47,0,100,43.8,18.87,0.00,0.00
15min,AgWx,drainfrm,410,22APR2018:01:00:00,43.2,12.76,43.7,44.4,44.1,44.6,43.4,86,89,83,0.834,40.1,40.7,39.6,4.099,3.2,208,7.2,4.5,-0.00010,-0.00012,51.0,48.9,48,0,100,44.3,18.87,0.00,0.00
15min,AgWx,drainfrm,410,22APR2018:01:15:00,43.0,12.76,43.5,44.2,43.9,44.4,43.5,86,88,84,0.826,39.9,40.4,39.5,3.749,3.9,199,6.2,5.0,-0.00008,-0.00009,50.8,49.3,47,0,100,44.2,18.87,0.00,0.00
15min,AgWx,drainfrm,410,22APR2018:01:30:00,42.9,12.76,41.1,41.6,43.6,44.3,41.6,82,85,78,0.756,38.5,39.7,37.0,2.718,3.3,168,18,4.3,-0.00008,-0.00009,50.7,49.3,47,0,100,43.9,18.87,0.00,0.00
15min,AgWx,drainfrm,410,22APR2018:01:45:00,42.5,12.75,42.4,43.3,42.7,43.3,41.4,81,85,78,0.747,37.2,37.7,36.7,3.442,3.4,163,6.5,4.5,-0.00007,-0.00007,50.5,49.3,48,0,100,43.2,18.87,0.00,0.00
15min,AgWx,drainfrm,410,22APR2018:02:00:00,42.2,12.75,40.3,41.3,42.6,43.6,41.3,81,89,76,0.784,37.3,38.3,36.2,2.499,3.2,104,35,5.0,-0.00008,-0.00009,50.4,49.1,48,0,100,43.2,18.87,0.00,0.00
15min,AgWx,drainfrm,410,22APR2018:02:15:00,41.9,12.75,40.8,41.6,41.8,42.3,41.1,87,91,85,0.787,38.3,38.7,38.1,2.543,3.0,67,4.1,5.2,-0.00011,-0.00013,50.3,48.9,47,0,100,42.7,18.87,0.00,0.00
15min,AgWx,drainfrm,410,22APR2018:02:30:00,41.6,12.74,39.4,40.3,42.2,43.0,40.3,85,89,82,0.750,38.0,38.7,37.2,3.814,2.5,58,43,3.8,-0.00012,-0.00015,50.1,49.1,47,0,100,43.3,18.87,0.00,0.00
15min,AgWx,drainfrm,410,22APR2018:02:45:00,40.8,12.74,36.5,37.4,38.2,40.0,37.3,96,99,88,0.748,37.0,37.9,36.2,3.508,4.0,306,22,4.6,-0.00011,-0.00013,49.9,49.1,47,0,100,40.7,18.87,0.00,0.00
15min,AgWx,drainfrm,410,22APR2018:03:00:00,39.8,12.73,38.0,39.3,37.9,39.4,37.2,99,100,97,0.813,37.7,39.3,36.4,1.206,2.4,340,26,3.8,-0.00016,-0.00020,49.8,49.1,47,0,100,40.5,18.87,0.00,0.00
15min,AgWx,drainfrm,410,22APR2018:03:15:00,39.2,12.73,37.6,38.7,38.6,39.4,38.1,100,100,99,0.795,38.5,39.4,38.0,0,0.8,210,27,3.0,-0.00021,-0.00030,49.7,49.1,47,0,100,39.9,18.87,0.00,0.00
15min,AgWx,drainfrm,410,22APR2018:03:30:00,38.7,12.73,38.9,39.9,39.2,41.3,38.2,98,100,91,0.786,38.5,39.3,37.6,0.811,1.5,87,66,4.4,-0.00018,-0.00025,49.6,49.1,47,0,100,40.0,18.87,0.00,0.00
15min,AgWx,drainfrm,410,22APR2018:03:45:00,38.4,12.72,38.0,38.5,38.6,40.3,37.7,98,100,94,0.787,38.0,39.0,37.4,3.157,3.0,62,20,4.5,-0.00014,-0.00018,49.5,49.1,47,0,100,39.9,18.87,0.00,0.00
15min,AgWx,drainfrm,410,22APR2018:04:00:00,38.3,12.73,38.2,38.7,38.9,39.4,38.2,99,100,97,0.795,38.6,39.0,38.1,2.653,3.4,49,20,4.7,-0.00014,-0.00017,49.5,49.1,48,0,100,40.2,18.87,0.00,0.00
15min,AgWx,drainfrm,410,22APR2018:04:15:00,38.0,12.72,38.0,38.7,38.9,39.1,38.6,100,100,99,0.793,38.7,38.9,38.5,1.469,2.1,26,11,2.7,-0.00017,-0.00022,49.4,48.7,47,0,100,40.0,18.87,0.00,0.00
15min,AgWx,drainfrm,410,22APR2018:04:30:00,37.7,12.71,37.0,37.6,38.3,38.7,37.6,100,100,100,0.761,38.3,38.6,37.5,2.258,2.3,18,9.1,3.2,-0.00016,-0.00021,49.2,49.1,47,0,100,39.7,18.87,0.00,0.00
15min,AgWx,drainfrm,410,22APR2018:04:45:00,37.4,12.71,36.1,36.8,37.5,38.0,36.8,100,100,100,0.738,37.4,37.9,36.7,2.696,2.2,18,16,3.3,-0.00016,-0.00021,49.0,48.7,47,0,100,39.0,18.87,0.00,0.00
15min,AgWx,drainfrm,410,22APR2018:05:00:00,36.9,12.7,36.3,37.4,36.4,37.4,36.0,100,100,100,0.754,36.3,37.3,35.9,3.705,3.0,21,23,4.5,-0.00014,-0.00018,48.9,48.7,48,0,100,38.2,18.87,0.00,0.00
15min,AgWx,drainfrm,410,22APR2018:05:15:00,36.6,12.7,36.1,36.8,37.3,38.0,36.8,98,100,97,0.738,36.9,37.9,36.6,1.052,2.2,43,29,4.2,-0.00016,-0.00020,48.9,48.7,48,0,100,38.6,18.87,0.00,0.00
15min,AgWx,drainfrm,410,22APR2018:05:30:00,36.3,12.7,35.7,36.3,36.9,37.3,36.3,100,100,100,0.724,36.8,37.2,36.3,3.332,2.5,25,11,3.4,-0.00015,-0.00020,48.8,48.9,48,1,100,38.2,18.87,0.00,0.00
15min,AgWx,drainfrm,410,22APR2018:05:45:00,36.1,12.7,34.4,35.0,36.3,36.7,35.0,100,100,100,0.686,36.2,36.6,34.9,2.565,3.1,11,13,4.9,-0.00013,-0.00016,48.6,48.6,47,6,100,37.9,18.87,0.00,0.00
15min,AgWx,drainfrm,410,22APR2018:06:00:00,35.6,12.69,33.6,34.3,34.6,34.9,34.3,100,100,100,0.668,34.5,34.8,34.2,0.548,1.3,351,29,2.6,-0.00016,-0.00017,48.5,48.7,47,14,100,37.4,18.87,0.00,0.00
15min,AgWx,drainfrm,410,22APR2018:06:15:00,35.6,12.7,35.0,35.4,34.4,35.4,33.8,100,100,100,0.696,34.3,35.3,33.7,5.875,3.3,304,20,5.9,-0.00018,-0.00019,48.3,48.7,48,49,100,38.0,18.87,0.00,0.00
15min,AgWx,drainfrm,410,22APR2018:06:30:00,38.8,12.71,38.5,37.3,36.6,37.4,35.3,100,100,100,0.752,36.5,37.3,35.2,1.425,2.2,339,13,6.2,0.00008,0.00009,48.1,48.4,48,113,100,39.8,18.86,0.00,0.00
15min,AgWx,drainfrm,410,22APR2018:06:45:00,43.7,12.72,41.1,40.2,38.7,40.3,37.4,99,100,98,0.829,38.5,39.8,37.3,1.184,2.0,335,19,3.2,0.00025,0.00027,48.0,48.7,47,149,100,42.0,18.86,0.00,0.00
15min,AgWx,drainfrm,410,22APR2018:07:00:00,48.4,12.76,43.2,42.6,41.4,42.6,40.3,96,98,93,0.869,40.2,41.0,39.4,3.902,3.0,355,6.3,4.4,0.00047,0.00052,47.9,48.4,47,192,100,44.8,18.86,0.00,0.00
15min,AgWx,drainfrm,410,22APR2018:07:15:00,53.1,12.85,45.7,44.7,43.5,44.7,42.5,91,94,87,0.889,41.1,42.4,39.6,2.192,2.3,337,19,5.8,0.00074,0.00082,48.0,48.4,47,238,100,48.3,18.86,0.00,0.00
15min,AgWx,drainfrm,410,22APR2018:07:30:00,58.4,13.01,47.1,46.0,45.5,46.4,44.5,86,92,80,0.871,41.5,42.7,40.1,2.916,2.0,3.1,23,3.4,0.00103,0.00114,48.0,48.4,47,285,100,52.1,18.85,0.00,0.00
15min,AgWx,drainfrm,410,22APR2018:07:45:00,62.3,13.22,47.7,46.6,46.3,46.7,45.9,82,87,78,0.852,41.1,42.3,39.7,2.916,3.1,7.2,13,4.4,0.00129,0.00145,48.0,48.0,47,333,100,55.9,18.85,0.00,0.00